Powrót do katalogu

STARLINK-37618

AktywnyŁącznośćSSO
NORAD 69228·PAYLOAD·🇺🇸 United States

Wystrzelony May 26, 2026 z Vandenberg Space Force Base

Loading…

Następne Przeloty (najbliższe 24 godziny)

TLE

ŚwieżeSource: CelesTrak SupGP

Epoka: Sep 14, 2026, 23:05 UTC

1 69228C 26115T   26257.96229167  .00051652  00000+0  16034-2 0  2577
2 69228  97.2834 274.1803 0001669  87.0988 308.8965 15.33411411    13

Śledź STARLINK-37618 w czasie rzeczywistym z AllMySat

Download on the App Store